"read_dt","SO2 (ppb)","flags","PMT voltage (V)","lamp voltage (V)","lamp intensity (Hz)","internal temp (C)","react chamber temp (C)","sample flow (l/min)","pres (mmHg)","SO2 bkg (ppb)","SO2 coefficient"
2014-02-26 00:00:00,6315E-2,5C000490,-0724,1374,5489,016.8,045.0,0.147,771.7,01.15,0.508
2014-02-26 00:01:00,6296E-2,5C000490,-0724,1374,5508,016.8,045.0,0.147,771.7,01.15,0.508
2014-02-26 00:02:00,6316E-2,5C000490,-0724,1374,5547,016.9,045.0,0.147,771.8,01.15,0.508
2014-02-26 00:03:00,6304E-2,5C000490,-0724,1374,5494,016.8,045.0,0.147,771.8,01.15,0.508
2014-02-26 00:04:00,6272E-2,5C000490,-0724,1374,5462,016.9,045.0,0.147,771.8,01.15,0.508
2014-02-26 00:05:00,6279E-2,5C000490,-0724,1374,5463,016.9,045.0,0.147,771.7,01.15,0.508
2014-02-26 00:06:00,6240E-2,5C000490,-0724,1374,5410,016.9,045.0,0.147,771.7,01.15,0.508
2014-02-26 00:07:00,6280E-2,5C000490,-0724,1374,5470,016.9,045.0,0.147,771.8,01.15,0.508
2014-02-26 00:08:00,6318E-2,5C000490,-0724,1374,5359,016.8,045.0,0.147,771.8,01.15,0.508
2014-02-26 00:09:00,6324E-2,5C000490,-0724,1374,5399,016.9,045.0,0.147,771.7,01.15,0.508
2014-02-26 00:10:00,6272E-2,5C000490,-0724,1374,5385,016.9,045.0,0.147,771.7,01.15,0.508
2014-02-26 00:11:00,6282E-2,5C000490,-0724,1374,5394,016.9,045.0,0.147,771.8,01.15,0.508
2014-02-26 00:12:00,6282E-2,5C000490,-0724,1374,5388,016.9,044.9,0.147,771.6,01.15,0.508
2014-02-26 00:13:00,6297E-2,5C000490,-0724,1374,5370,016.9,044.9,0.147,771.7,01.15,0.508
2014-02-26 00:14:00,6263E-2,5C000490,-0724,1374,5412,016.9,045.0,0.147,771.8,01.15,0.508
2014-02-26 00:15:00,6292E-2,5C000490,-0724,1374,5334,016.9,045.0,0.147,771.8,01.15,0.508
2014-02-26 00:16:00,6336E-2,5C000490,-0724,1374,5305,016.9,044.9,0.147,771.7,01.15,0.508
2014-02-26 00:17:00,6275E-2,5C000490,-0724,1374,5342,016.9,045.0,0.147,771.7,01.15,0.508
2014-02-26 00:18:00,6301E-2,5C000490,-0724,1374,5341,016.9,045.0,0.147,771.8,01.15,0.508
2014-02-26 00:19:00,6282E-2,5C000490,-0724,1374,5378,016.9,045.0,0.147,771.6,01.15,0.508
2014-02-26 00:20:00,6240E-2,5C000490,-0724,1374,5399,016.9,045.0,0.147,771.7,01.15,0.508
2014-02-26 00:21:00,6369E-2,5C000490,-0724,1374,5351,016.9,045.0,0.147,771.7,01.15,0.508
2014-02-26 00:22:00,6328E-2,5C000490,-0724,1374,5370,016.9,045.0,0.147,771.7,01.15,0.508
2014-02-26 00:23:00,6307E-2,5C000490,-0724,1374,5278,016.9,045.0,0.147,771.8,01.15,0.508
2014-02-26 00:24:00,6250E-2,5C000490,-0724,1374,5288,016.9,045.0,0.147,771.7,01.15,0.508
2014-02-26 00:25:00,6262E-2,5C000490,-0724,1374,5292,016.9,045.0,0.147,771.6,01.15,0.508
2014-02-26 00:26:00,6317E-2,5C000490,-0724,1374,5314,016.9,045.0,0.147,771.7,01.15,0.508
2014-02-26 00:27:00,6300E-2,5C000490,-0724,1374,5250,016.9,045.0,0.147,771.7,01.15,0.508
2014-02-26 00:28:00,6243E-2,5C000490,-0724,1374,5360,016.9,045.0,0.147,771.7,01.15,0.508
2014-02-26 00:29:00,6259E-2,5C000490,-0724,1374,5287,016.9,045.0,0.147,771.7,01.15,0.508
2014-02-26 00:30:00,6307E-2,5C000490,-0724,1374,5316,016.9,045.0,0.147,771.7,01.15,0.508
2014-02-26 00:31:00,6291E-2,5C000490,-0724,1374,5204,016.9,045.0,0.147,771.6,01.15,0.508
2014-02-26 00:32:00,6273E-2,5C000490,-0724,1374,5273,016.9,045.0,0.147,771.7,01.15,0.508
2014-02-26 00:33:00,6283E-2,5C000490,-0724,1374,5245,016.9,045.0,0.147,771.8,01.15,0.508
2014-02-26 00:34:00,6353E-2,5C000490,-0724,1374,5252,016.9,045.0,0.147,771.7,01.15,0.508
2014-02-26 00:35:00,6310E-2,5C000490,-0724,1374,5202,016.9,045.0,0.147,771.7,01.15,0.508
2014-02-26 00:36:00,6328E-2,5C000490,-0724,1374,5207,016.9,045.0,0.147,771.7,01.15,0.508
2014-02-26 00:37:00,6277E-2,5C000490,-0724,1374,5189,016.9,045.0,0.147,771.6,01.15,0.508
2014-02-26 00:38:00,6297E-2,5C000490,-0724,1374,5219,016.9,045.0,0.147,771.7,01.15,0.508
2014-02-26 00:39:00,6344E-2,5C000490,-0724,1374,5237,016.9,045.0,0.147,771.7,01.15,0.508
2014-02-26 00:40:00,6281E-2,5C000490,-0724,1374,5244,016.9,045.0,0.147,771.6,01.15,0.508
2014-02-26 00:41:00,6252E-2,5C000490,-0724,1374,5269,016.9,045.0,0.147,771.6,01.15,0.508
2014-02-26 00:42:00,6261E-2,5C000490,-0724,1374,5222,017.0,045.0,0.147,771.8,01.15,0.508
2014-02-26 00:43:00,6299E-2,5C000490,-0724,1374,5195,017.0,045.0,0.147,771.6,01.15,0.508
2014-02-26 00:44:00,6311E-2,5C000490,-0724,1374,5169,017.0,045.0,0.147,771.6,01.15,0.508
2014-02-26 00:45:00,6271E-2,5C000490,-0724,1374,5115,016.9,045.0,0.147,771.6,01.15,0.508
2014-02-26 00:46:00,6207E-2,5C000490,-0724,1374,5170,017.0,045.0,0.147,771.7,01.15,0.508
2014-02-26 00:47:00,6246E-2,5C000490,-0724,1374,5160,017.0,045.0,0.147,771.7,01.15,0.508
2014-02-26 00:48:00,6241E-2,5C000490,-0724,1374,5105,017.0,045.0,0.147,771.6,01.15,0.508
2014-02-26 00:49:00,6254E-2,5C000490,-0724,1374,5192,017.0,045.0,0.147,771.7,01.15,0.508
2014-02-26 00:50:00,6253E-2,5C000490,-0724,1374,5135,017.0,045.0,0.147,771.6,01.15,0.508
2014-02-26 00:51:00,6284E-2,5C000490,-0724,1374,5125,017.0,045.0,0.146,771.6,01.15,0.508
2014-02-26 00:52:00,6264E-2,5C000490,-0724,1374,5106,017.0,045.0,0.147,771.6,01.15,0.508
2014-02-26 00:53:00,6188E-2,5C000490,-0724,1374,5141,017.0,045.0,0.147,771.6,01.15,0.508
2014-02-26 00:54:00,6201E-2,5C000490,-0724,1374,5099,017.0,045.0,0.146,771.7,01.15,0.508
2014-02-26 00:55:00,6179E-2,5C000490,-0724,1374,5122,017.0,045.0,0.146,771.7,01.15,0.508
2014-02-26 00:56:00,6125E-2,5C000490,-0724,1374,5076,017.0,045.0,0.147,771.6,01.15,0.508
2014-02-26 00:57:00,6161E-2,5C000490,-0724,1374,5091,017.0,044.9,0.146,771.6,01.15,0.508
2014-02-26 00:58:00,6168E-2,5C000490,-0724,1374,4982,017.0,045.0,0.146,771.6,01.15,0.508
2014-02-26 00:59:00,6183E-2,5C000490,-0724,1374,5057,017.0,045.0,0.146,771.7,01.15,0.508
2014-02-26 01:00:00,6185E-2,5C000490,-0724,1374,5026,017.0,045.0,0.146,771.7,01.15,0.508
2014-02-26 01:01:00,6173E-2,5C000490,-0724,1374,5063,017.0,045.0,0.146,771.6,01.15,0.508
2014-02-26 01:02:00,6152E-2,5C000490,-0724,1374,5057,017.1,045.0,0.146,771.6,01.15,0.508
2014-02-26 01:03:00,6149E-2,5C000490,-0724,1374,5054,017.0,045.0,0.146,771.6,01.15,0.508
2014-02-26 01:04:00,6118E-2,5C000490,-0724,1374,5070,017.1,045.0,0.146,771.7,01.15,0.508
2014-02-26 01:05:00,6185E-2,5C000490,-0724,1374,5064,017.0,045.0,0.146,771.7,01.15,0.508
2014-02-26 01:06:00,6109E-2,5C000490,-0724,1374,5041,017.0,045.0,0.146,771.7,01.15,0.508
2014-02-26 01:07:00,6228E-2,5C000490,-0724,1374,5023,017.1,045.0,0.146,771.6,01.15,0.508
2014-02-26 01:08:00,6180E-2,5C000490,-0724,1374,5097,017.1,045.0,0.146,771.7,01.15,0.508
2014-02-26 01:09:00,6131E-2,5C000490,-0724,1374,5077,017.1,045.0,0.146,771.6,01.15,0.508
2014-02-26 01:10:00,6144E-2,5C000490,-0724,1374,5076,017.1,045.0,0.146,771.7,01.15,0.508
2014-02-26 01:11:00,6141E-2,5C000490,-0724,1374,5013,017.1,045.0,0.146,771.8,01.15,0.508
2014-02-26 01:12:00,6174E-2,5C000490,-0724,1374,4994,017.1,045.0,0.146,771.6,01.15,0.508
2014-02-26 01:13:00,6153E-2,5C000490,-0724,1374,5094,017.1,045.0,0.146,771.6,01.15,0.508
2014-02-26 01:14:00,6120E-2,5C000490,-0724,1374,5088,017.1,045.0,0.146,771.6,01.15,0.508
2014-02-26 01:15:00,6118E-2,5C000490,-0724,1374,5060,017.1,045.0,0.146,771.7,01.15,0.508
2014-02-26 01:16:00,6120E-2,5C000490,-0724,1374,5043,017.1,045.0,0.146,771.7,01.15,0.508
2014-02-26 01:17:00,6063E-2,5C000490,-0724,1374,4963,017.1,045.0,0.146,771.6,01.15,0.508
2014-02-26 01:18:00,6110E-2,5C000490,-0724,1374,5026,017.1,045.0,0.146,771.7,01.15,0.508
2014-02-26 01:19:00,6104E-2,5C000490,-0724,1374,5035,017.1,045.0,0.146,771.7,01.15,0.508
2014-02-26 01:20:00,6182E-2,5C000490,-0724,1374,5093,017.1,045.0,0.146,771.7,01.15,0.508
2014-02-26 01:21:00,6177E-2,5C000490,-0724,1374,5095,017.1,045.0,0.146,771.6,01.15,0.508
2014-02-26 01:22:00,6066E-2,5C000490,-0724,1374,5040,017.1,045.0,0.146,771.7,01.15,0.508
2014-02-26 01:23:00,6178E-2,5C000490,-0724,1374,5022,017.1,045.0,0.146,771.7,01.15,0.508
2014-02-26 01:24:00,6146E-2,5C000490,-0724,1374,5019,017.1,045.0,0.146,771.6,01.15,0.508
2014-02-26 01:25:00,6092E-2,5C000490,-0724,1374,5024,017.2,045.0,0.146,771.6,01.15,0.508
2014-02-26 01:26:00,6108E-2,5C000490,-0724,1374,4962,017.2,045.0,0.146,771.7,01.15,0.508
2014-02-26 01:27:00,6093E-2,5C000490,-0724,1374,4994,017.2,045.0,0.146,771.6,01.15,0.508
2014-02-26 01:28:00,6092E-2,5C000490,-0724,1374,4958,017.2,045.0,0.146,771.7,01.15,0.508
2014-02-26 01:29:00,6105E-2,5C000490,-0724,1374,5013,017.2,045.0,0.146,771.6,01.15,0.508
2014-02-26 01:30:00,6177E-2,5C000490,-0724,1374,4925,017.2,045.0,0.146,771.6,01.15,0.508
2014-02-26 01:31:00,6101E-2,5C000490,-0724,1374,4922,017.2,045.0,0.146,771.6,01.15,0.508
2014-02-26 01:32:00,6125E-2,5C000490,-0724,1374,4963,017.2,045.0,0.146,771.6,01.15,0.508
2014-02-26 01:33:00,6095E-2,5C000490,-0724,1374,4953,017.2,045.0,0.146,771.7,01.15,0.508
2014-02-26 01:34:00,6159E-2,5C000490,-0724,1374,4961,017.2,045.0,0.146,771.7,01.15,0.508
2014-02-26 01:35:00,6170E-2,5C000490,-0724,1374,4952,017.2,045.0,0.146,771.7,01.15,0.508
2014-02-26 01:36:00,6153E-2,5C000490,-0724,1374,4926,017.2,045.0,0.146,771.6,01.15,0.508
2014-02-26 01:37:00,6179E-2,5C000490,-0724,1374,5002,017.2,045.0,0.146,771.6,01.15,0.508
2014-02-26 01:38:00,6161E-2,5C000490,-0724,1374,5079,017.2,045.0,0.146,771.7,01.15,0.508
2014-02-26 01:39:00,6194E-2,5C000490,-0724,1374,4914,017.2,045.0,0.146,771.7,01.15,0.508
2014-02-26 01:40:00,6136E-2,5C000490,-0724,1374,4940,017.2,045.0,0.146,771.6,01.15,0.508
2014-02-26 01:41:00,6169E-2,5C000490,-0724,1374,4966,017.2,045.0,0.146,771.6,01.15,0.508
2014-02-26 01:42:00,6191E-2,5C000490,-0724,1374,4902,017.2,045.0,0.146,771.6,01.15,0.508
2014-02-26 01:43:00,6180E-2,5C000490,-0724,1374,4953,017.2,045.0,0.146,771.6,01.15,0.508
2014-02-26 01:44:00,6145E-2,5C000490,-0724,1374,4911,017.2,045.0,0.146,771.6,01.15,0.508
2014-02-26 01:45:00,6186E-2,5C000490,-0724,1374,4862,017.3,045.0,0.146,771.5,01.15,0.508
2014-02-26 01:46:00,6104E-2,5C000490,-0724,1374,4911,017.3,045.0,0.146,771.6,01.15,0.508
2014-02-26 01:47:00,6198E-2,5C000490,-0724,1374,4901,017.3,045.0,0.146,771.6,01.15,0.508
2014-02-26 01:48:00,6107E-2,5C000490,-0724,1374,4872,017.3,045.0,0.146,771.5,01.15,0.508
2014-02-26 01:49:00,6168E-2,5C000490,-0724,1374,4869,017.3,044.9,0.146,771.5,01.15,0.508
2014-02-26 01:50:00,6142E-2,5C000490,-0724,1374,4863,017.3,045.0,0.146,771.6,01.15,0.508
2014-02-26 01:51:00,6141E-2,5C000490,-0724,1374,4877,017.3,045.0,0.146,771.5,01.15,0.508
2014-02-26 01:52:00,6128E-2,5C000490,-0724,1374,4846,017.3,045.0,0.146,771.6,01.15,0.508
2014-02-26 01:53:00,6118E-2,5C000490,-0724,1374,4871,017.3,045.0,0.146,771.6,01.15,0.508
2014-02-26 01:54:00,6170E-2,5C000490,-0724,1374,4883,017.3,045.0,0.146,771.7,01.15,0.508
2014-02-26 01:55:00,6143E-2,5C000490,-0724,1374,4845,017.3,045.0,0.146,771.6,01.15,0.508
2014-02-26 01:56:00,6190E-2,5C000490,-0724,1374,4865,017.3,045.0,0.146,771.5,01.15,0.508
2014-02-26 01:57:00,6210E-2,5C000490,-0724,1374,4927,017.3,045.0,0.146,771.5,01.15,0.508
2014-02-26 01:58:00,6156E-2,5C000490,-0724,1374,4875,017.3,045.0,0.145,771.5,01.15,0.508
2014-02-26 01:59:00,6234E-2,5C000490,-0724,1374,4878,017.3,045.0,0.145,771.5,01.15,0.508
2014-02-26 02:00:00,6175E-2,5C000490,-0724,1374,4850,017.3,045.0,0.146,771.5,01.15,0.508
2014-02-26 02:01:00,6127E-2,5C000490,-0724,1374,4877,017.4,045.0,0.145,771.6,01.15,0.508
2014-02-26 02:02:00,6159E-2,5C000490,-0724,1374,4892,017.3,045.0,0.145,771.5,01.15,0.508
2014-02-26 02:03:00,6160E-2,5C000490,-0724,1374,4841,017.4,045.0,0.145,771.4,01.15,0.508
2014-02-26 02:04:00,6188E-2,5C000490,-0724,1374,4836,017.4,045.0,0.145,771.5,01.15,0.508
2014-02-26 02:05:00,6196E-2,5C000490,-0724,1374,4787,017.4,045.0,0.145,771.6,01.15,0.508
2014-02-26 02:06:00,6157E-2,5C000490,-0724,1374,4802,017.4,045.0,0.145,771.4,01.15,0.508
2014-02-26 02:07:00,6122E-2,5C000490,-0724,1374,4791,017.4,045.0,0.145,771.5,01.15,0.508
2014-02-26 02:08:00,6150E-2,5C000490,-0724,1374,4819,017.4,045.0,0.145,771.5,01.15,0.508
2014-02-26 02:09:00,6116E-2,5C000490,-0724,1374,4827,017.4,045.0,0.145,771.6,01.15,0.508
2014-02-26 02:10:00,6196E-2,5C000490,-0724,1374,4825,017.4,045.0,0.145,771.4,01.15,0.508
2014-02-26 02:11:00,6127E-2,5C000490,-0724,1374,4825,017.4,045.0,0.145,771.3,01.15,0.508
2014-02-26 02:12:00,6098E-2,5C000490,-0724,1374,4796,017.4,045.0,0.145,771.4,01.15,0.508
2014-02-26 02:13:00,6149E-2,5C000490,-0724,1374,4786,017.4,045.0,0.145,771.5,01.15,0.508
2014-02-26 02:14:00,6206E-2,5C000490,-0724,1374,4721,017.4,045.0,0.145,771.5,01.15,0.508
2014-02-26 02:15:00,6163E-2,5C000490,-0724,1374,4766,017.5,045.0,0.145,771.5,01.15,0.508
2014-02-26 02:16:00,6031E-2,5C000490,-0724,1374,4717,017.4,045.0,0.145,771.4,01.15,0.508
2014-02-26 02:17:00,6061E-2,5C000490,-0724,1374,4736,017.4,045.0,0.145,771.4,01.15,0.508
2014-02-26 02:18:00,6075E-2,5C000490,-0724,1374,4680,017.4,045.0,0.145,771.4,01.15,0.508
2014-02-26 02:19:00,6080E-2,5C000490,-0724,1374,4793,017.5,045.0,0.145,771.4,01.15,0.508
2014-02-26 02:20:00,6146E-2,5C000490,-0724,1374,4813,017.5,045.0,0.145,771.5,01.15,0.508
2014-02-26 02:21:00,6087E-2,5C000490,-0724,1374,4804,017.5,045.0,0.145,771.4,01.15,0.508
2014-02-26 02:22:00,6077E-2,5C000490,-0724,1374,4819,017.5,045.0,0.145,771.5,01.15,0.508
2014-02-26 02:23:00,6086E-2,5C000490,-0724,1374,4754,017.5,045.0,0.145,771.6,01.15,0.508
2014-02-26 02:24:00,6027E-2,5C000490,-0724,1374,4768,017.5,045.0,0.145,771.5,01.15,0.508
2014-02-26 02:25:00,6074E-2,5C000490,-0724,1374,4755,017.5,045.0,0.145,771.4,01.15,0.508
2014-02-26 02:26:00,6169E-2,5C000490,-0724,1374,4776,017.5,045.0,0.145,771.5,01.15,0.508
2014-02-26 02:27:00,6163E-2,5C000490,-0724,1374,4764,017.5,045.0,0.145,771.4,01.15,0.508
2014-02-26 02:28:00,6100E-2,5C000490,-0724,1374,4779,017.5,045.0,0.145,771.5,01.15,0.508
2014-02-26 02:29:00,6089E-2,5C000490,-0724,1374,4797,017.5,045.0,0.145,771.4,01.15,0.508
2014-02-26 02:30:00,6062E-2,5C000490,-0724,1374,4755,017.5,045.0,0.145,771.4,01.15,0.508
2014-02-26 02:31:00,6063E-2,5C000490,-0724,1374,4861,017.5,045.0,0.145,771.4,01.15,0.508
2014-02-26 02:32:00,6043E-2,5C000490,-0724,1374,4844,017.5,045.0,0.145,771.3,01.15,0.508
2014-02-26 02:33:00,6001E-2,5C000490,-0724,1374,4838,017.5,045.0,0.145,771.5,01.15,0.508
2014-02-26 02:34:00,6016E-2,5C000490,-0724,1374,4831,017.5,045.0,0.145,771.5,01.15,0.508
2014-02-26 02:35:00,5956E-2,5C000490,-0724,1374,4762,017.5,045.0,0.145,771.4,01.15,0.508
2014-02-26 02:36:00,5952E-2,5C000490,-0724,1374,4746,017.6,045.0,0.145,771.4,01.15,0.508
2014-02-26 02:37:00,5978E-2,5C000490,-0724,1374,4752,017.5,045.0,0.145,771.4,01.15,0.508
2014-02-26 02:38:00,6052E-2,5C000490,-0724,1374,4704,017.6,045.0,0.145,771.4,01.15,0.508
2014-02-26 02:39:00,5998E-2,5C000490,-0724,1374,4779,017.6,045.0,0.145,771.4,01.15,0.508
2014-02-26 02:40:00,6042E-2,5C000490,-0724,1374,4710,017.6,045.0,0.145,771.5,01.15,0.508
2014-02-26 02:41:00,6044E-2,5C000490,-0724,1374,4754,017.5,045.0,0.144,771.5,01.15,0.508
2014-02-26 02:42:00,5993E-2,5C000490,-0724,1374,4744,017.6,045.0,0.145,771.5,01.15,0.508
2014-02-26 02:43:00,5957E-2,5C000490,-0724,1374,4730,017.6,045.0,0.145,771.3,01.15,0.508
2014-02-26 02:44:00,5967E-2,5C000490,-0724,1374,4740,017.6,045.0,0.144,771.2,01.15,0.508
2014-02-26 02:45:00,5963E-2,5C000490,-0724,1374,4682,017.6,044.9,0.144,771.3,01.15,0.508
2014-02-26 02:46:00,6006E-2,5C000490,-0724,1374,4681,017.6,045.0,0.144,771.5,01.15,0.508
2014-02-26 02:47:00,6063E-2,5C000490,-0724,1374,4678,017.6,045.0,0.144,771.4,01.15,0.508
2014-02-26 02:48:00,5996E-2,5C000490,-0724,1374,4756,017.6,045.0,0.144,771.4,01.15,0.508
2014-02-26 02:49:00,6019E-2,5C000490,-0724,1374,4677,017.6,045.0,0.144,771.4,01.15,0.508
2014-02-26 02:50:00,6006E-2,5C000490,-0724,1374,4665,017.6,045.0,0.144,771.3,01.15,0.508
2014-02-26 02:51:00,6018E-2,5C000490,-0724,1374,4636,017.6,045.0,0.144,771.3,01.15,0.508
2014-02-26 02:52:00,5960E-2,5C000490,-0724,1374,4652,017.6,045.0,0.144,771.4,01.15,0.508
2014-02-26 02:53:00,6037E-2,5C000490,-0724,1374,4683,017.7,045.0,0.144,771.4,01.15,0.508
2014-02-26 02:54:00,6094E-2,5C000490,-0724,1374,4858,017.6,045.0,0.144,771.4,01.15,0.508
2014-02-26 02:55:00,6126E-2,5C000490,-0724,1374,4809,017.7,045.0,0.144,771.4,01.15,0.508
2014-02-26 02:56:00,6074E-2,5C000490,-0724,1374,4790,017.7,045.0,0.144,771.4,01.15,0.508
2014-02-26 02:57:00,6060E-2,5C000490,-0724,1374,4832,017.7,045.0,0.144,771.4,01.15,0.508
2014-02-26 02:58:00,6057E-2,5C000490,-0724,1374,4812,017.7,045.0,0.144,771.3,01.15,0.508
2014-02-26 02:59:00,6046E-2,5C000490,-0724,1374,4729,017.7,045.0,0.144,771.4,01.15,0.508
2014-02-26 03:00:00,6073E-2,5C000490,-0724,1374,4726,017.7,045.0,0.144,771.4,01.15,0.508
2014-02-26 03:01:00,6123E-2,5C000490,-0724,1374,4728,017.7,045.0,0.144,771.3,01.15,0.508
2014-02-26 03:02:00,6052E-2,5C000490,-0724,1374,4697,017.7,045.0,0.144,771.5,01.15,0.508
2014-02-26 03:03:00,6016E-2,5C000490,-0724,1374,4710,017.7,045.0,0.144,771.4,01.15,0.508
2014-02-26 03:04:00,6085E-2,5C000490,-0724,1374,4692,017.7,045.0,0.144,771.4,01.15,0.508
2014-02-26 03:05:00,6072E-2,5C000490,-0724,1374,4706,017.7,045.0,0.144,771.4,01.15,0.508
2014-02-26 03:06:00,6082E-2,5C000490,-0724,1374,4684,017.7,045.0,0.144,771.4,01.15,0.508
2014-02-26 03:07:00,5970E-2,5C000490,-0724,1374,4611,017.7,045.0,0.144,771.4,01.15,0.508
2014-02-26 03:08:00,6073E-2,5C000490,-0724,1374,4629,017.7,045.0,0.144,771.4,01.15,0.508
2014-02-26 03:09:00,6060E-2,5C000490,-0724,1374,4655,017.7,045.0,0.144,771.4,01.15,0.508
2014-02-26 03:10:00,6009E-2,5C000490,-0724,1374,4614,017.8,045.0,0.144,771.4,01.15,0.508
2014-02-26 03:11:00,5963E-2,5C000490,-0724,1374,4612,017.7,045.0,0.144,771.3,01.15,0.508
2014-02-26 03:12:00,5991E-2,5C000490,-0724,1374,4649,017.8,045.0,0.144,771.3,01.15,0.508
2014-02-26 03:13:00,6071E-2,5C000490,-0724,1374,4629,017.8,045.0,0.144,771.4,01.15,0.508
2014-02-26 03:14:00,6015E-2,5C000490,-0724,1374,4586,017.8,045.0,0.144,771.4,01.15,0.508
2014-02-26 03:15:00,6006E-2,5C000490,-0724,1374,4638,017.8,045.0,0.144,771.3,01.15,0.508
2014-02-26 03:16:00,6052E-2,5C000490,-0724,1374,4613,017.8,045.0,0.144,771.3,01.15,0.508
2014-02-26 03:17:00,5927E-2,5C000490,-0724,1374,4611,017.8,045.0,0.144,771.3,01.15,0.508
2014-02-26 03:18:00,6042E-2,5C000490,-0724,1374,4582,017.8,045.0,0.144,771.3,01.15,0.508
2014-02-26 03:19:00,5999E-2,5C000490,-0724,1374,4628,017.8,045.0,0.144,771.3,01.15,0.508
2014-02-26 03:20:00,6060E-2,5C000490,-0724,1374,4572,017.8,045.0,0.144,771.5,01.15,0.508
2014-02-26 03:21:00,6071E-2,5C000490,-0724,1374,4508,017.8,045.0,0.144,771.5,01.15,0.508
2014-02-26 03:22:00,6008E-2,5C000490,-0724,1374,4572,017.8,045.0,0.144,771.6,01.15,0.508
2014-02-26 03:23:00,6034E-2,5C000490,-0724,1374,4573,017.8,045.0,0.144,771.6,01.15,0.508
2014-02-26 03:24:00,6066E-2,5C000490,-0724,1374,4574,017.8,045.0,0.144,771.6,01.15,0.508
2014-02-26 03:25:00,5985E-2,5C000490,-0724,1374,4586,017.8,045.0,0.144,771.6,01.15,0.508
2014-02-26 03:26:00,6089E-2,5C000490,-0724,1374,4525,017.8,045.0,0.144,771.6,01.15,0.508
2014-02-26 03:27:00,6096E-2,5C000490,-0724,1374,4576,017.8,045.0,0.144,771.5,01.15,0.508
2014-02-26 03:28:00,6077E-2,5C000490,-0724,1374,4487,017.8,045.0,0.144,771.6,01.15,0.508
2014-02-26 03:29:00,6044E-2,5C000490,-0724,1374,4527,017.8,045.0,0.144,771.6,01.15,0.508
2014-02-26 03:30:00,6052E-2,5C000490,-0724,1374,4469,017.8,045.0,0.144,771.6,01.15,0.508
2014-02-26 03:31:00,6061E-2,5C000490,-0724,1374,4546,017.8,045.0,0.144,771.6,01.15,0.508
2014-02-26 03:32:00,5949E-2,5C000490,-0724,1374,4523,017.8,045.0,0.144,771.6,01.15,0.508
2014-02-26 03:33:00,6005E-2,5C000490,-0724,1374,4535,017.8,045.0,0.144,771.6,01.15,0.508
2014-02-26 03:34:00,5980E-2,5C000490,-0724,1374,4500,017.8,045.0,0.143,771.5,01.15,0.508
2014-02-26 03:35:00,6044E-2,5C000490,-0724,1374,4516,017.8,045.0,0.143,771.5,01.15,0.508
2014-02-26 03:36:00,6018E-2,5C000490,-0724,1374,4581,017.9,045.0,0.143,771.6,01.15,0.508
2014-02-26 03:37:00,6005E-2,5C000490,-0724,1374,4603,017.9,045.0,0.143,771.4,01.15,0.508
2014-02-26 03:38:00,6013E-2,5C000490,-0724,1374,4649,017.9,045.0,0.143,771.4,01.15,0.508
2014-02-26 03:39:00,6076E-2,5C000490,-0724,1374,4650,017.9,045.0,0.143,771.5,01.15,0.508
2014-02-26 03:40:00,6065E-2,5C000490,-0724,1374,4590,017.9,045.0,0.143,771.5,01.15,0.508
2014-02-26 03:41:00,6025E-2,5C000490,-0724,1374,4519,017.9,045.0,0.143,771.4,01.15,0.508
2014-02-26 03:42:00,6026E-2,5C000490,-0724,1374,4608,017.9,045.0,0.143,771.4,01.15,0.508
2014-02-26 03:43:00,6062E-2,5C000490,-0724,1374,4560,017.9,045.0,0.143,771.4,01.15,0.508
2014-02-26 03:44:00,6077E-2,5C000490,-0724,1374,4559,017.9,045.0,0.143,771.5,01.15,0.508
2014-02-26 03:45:00,6044E-2,5C000490,-0724,1374,4592,017.9,045.0,0.143,771.4,01.15,0.508
2014-02-26 03:46:00,6043E-2,5C000490,-0724,1374,4630,017.9,045.0,0.143,771.3,01.15,0.508
2014-02-26 03:47:00,6092E-2,5C000490,-0724,1374,4568,017.9,045.0,0.143,771.3,01.15,0.508
2014-02-26 03:48:00,6024E-2,5C000490,-0724,1374,4699,017.9,045.0,0.143,771.4,01.15,0.508
2014-02-26 03:49:00,5591E-2,5C000490,-0724,1374,4687,017.9,045.0,0.143,771.5,01.15,0.508
2014-02-26 03:50:00,5657E-2,5C000490,-0724,1374,4720,017.9,045.0,0.143,771.4,01.15,0.508
2014-02-26 03:51:00,5635E-2,5C000490,-0724,1374,4655,018.0,045.0,0.143,771.4,01.15,0.508
2014-02-26 03:52:00,5713E-2,5C000490,-0724,1374,4686,017.9,045.0,0.143,771.4,01.15,0.508
2014-02-26 03:53:00,5646E-2,5C000490,-0724,1374,4669,018.0,045.0,0.143,771.3,01.15,0.508
2014-02-26 03:54:00,5717E-2,5C000490,-0724,1374,4589,018.0,045.0,0.000,771.3,01.15,0.508
2014-02-26 03:55:00,5697E-2,5C000490,-0724,1374,4640,018.0,045.0,0.142,771.3,01.15,0.508
2014-02-26 03:56:00,5704E-2,5C000490,-0724,1374,4670,017.9,045.0,0.112,771.3,01.15,0.508
2014-02-26 03:57:00,5632E-2,5C000490,-0724,1374,4621,018.0,045.0,0.127,771.3,01.15,0.508
2014-02-26 03:58:00,5479E-2,5C000490,-0724,1296,9859,018.0,045.0,0.000,771.3,01.15,0.508
2014-02-26 03:59:00,5018E-2,5C000410,-0724,1143,9231,018.0,045.0,0.000,771.2,01.15,0.508
2014-02-26 04:00:00,4818E-2,5C000410,-0724,1142,9065,018.0,045.0,0.000,771.3,01.15,0.508
2014-02-26 04:01:00,4861E-2,5C000410,-0724,1150,9018,018.0,045.0,0.000,771.3,01.15,0.508
2014-02-26 04:02:00,4819E-2,5C000410,-0724,1159,8923,018.0,045.0,0.000,771.3,01.15,0.508
2014-02-26 04:03:00,4967E-2,5C000410,-0724,1165,8938,018.0,045.0,0.000,771.2,01.15,0.508
2014-02-26 04:04:00,4975E-2,5C000410,-0724,1170,8832,018.0,045.0,0.000,771.2,01.15,0.508
2014-02-26 04:05:00,4991E-2,5C000410,-0724,1175,8767,018.0,045.0,0.000,771.2,01.15,0.508
2014-02-26 04:06:00,5055E-2,5C000410,-0724,1180,8684,018.0,045.0,0.000,771.2,01.15,0.508
2014-02-26 04:07:00,4997E-2,5C000410,-0724,1187,8706,018.0,045.0,0.000,771.2,01.15,0.508
2014-02-26 04:08:00,5061E-2,5C000410,-0724,1191,8677,018.0,045.0,0.000,771.3,01.15,0.508
2014-02-26 04:09:00,5028E-2,5C000410,-0724,1194,8600,018.0,045.0,0.000,771.2,01.15,0.508
2014-02-26 04:10:00,4994E-2,5C000410,-0724,1199,8489,018.0,045.0,0.000,771.2,01.15,0.508
2014-02-26 04:11:00,5022E-2,5C000490,-0724,1203,8414,018.0,045.0,0.000,771.3,01.15,0.508
2014-02-26 04:12:00,5068E-2,5C000490,-0724,1209,8375,018.0,045.0,0.000,771.3,01.15,0.508
2014-02-26 04:13:00,5023E-2,5C000490,-0724,1214,8490,018.0,045.0,0.000,771.3,01.15,0.508
2014-02-26 04:14:00,5014E-2,5C000490,-0724,1217,8420,018.0,045.0,0.000,771.2,01.15,0.508
2014-02-26 04:15:00,5043E-2,5C000490,-0724,1221,8409,018.0,045.0,0.000,771.2,01.15,0.508
2014-02-26 04:16:00,5009E-2,5C000490,-0724,1223,8258,018.0,045.0,0.000,771.1,01.15,0.508
2014-02-26 04:17:00,5021E-2,5C000490,-0724,1224,8257,018.0,045.0,0.000,771.2,01.15,0.508
2014-02-26 04:18:00,5033E-2,5C000490,-0724,1226,8251,018.1,045.0,0.000,771.3,01.15,0.508
2014-02-26 04:19:00,5040E-2,5C000490,-0724,1228,8203,018.0,045.0,0.000,771.2,01.15,0.508
2014-02-26 04:20:00,5031E-2,5C000490,-0724,1231,8298,018.0,045.0,0.000,771.2,01.15,0.508
2014-02-26 04:21:00,5017E-2,5C000490,-0724,1233,8207,018.0,045.0,0.000,771.1,01.15,0.508
2014-02-26 04:22:00,4978E-2,5C000490,-0724,1235,8228,018.1,045.0,0.000,771.2,01.15,0.508
2014-02-26 04:23:00,4965E-2,5C000490,-0724,1240,8115,018.1,045.0,0.000,771.2,01.15,0.508